Wind_Speed
14 15 15 17 15 10 10 4 4 3 17 4 1 2 3 0 4 2 3 2 3 5 5 3 2 2 1 3 1 2 4 1 3 4 4 3 2 4 4 2 5 2 3 3
14 14 15 15 10 3 7 3 2 5 7 3 3 2 4 3 5 4 4 4 4 2 3 4 2 3 4 5 1 2 1 3 3 6 4 5 6 6 1 3 1 9 3 5
15 16 15 14 6 6 6 4 2 3 3 1 2 2 3 2 3 3 3 3 4 2 4 4 3 2 4 5 2 2 1 4 3 4 4 2 6 12 11 2 3 2 6 7
15 15 14 10 8 5 2 2 2 3 1 3 3 1 2 2 2 3 4 4 4 3 3 3 2 1 4 4 6 2 2 2 3 3 4 8 7 6 8 8 4 4 7 9
13 12 9 7 6 5 4 3 4 2 2 2 3 5 3 2 2 4 3 5 4 6 4 2 3 2 0 2 7 5 4 1 2 5 3 11 7 9 9 7 6 3 5 4
12 10 9 12 4 5 4 2 3 4 3 2 3 2 1 1 3 3 4 2 4 5 1 2 2 3 1 2 2 3 3 2 2 3 3 1 5 6 6 3 6 4 5 3
9 8 10 7 7 11 5 3 3 4 1 2 0 1 3 3 2 4 3 4 3 1 5 4 2 2 2 1 3 1 3 2 1 3 3 3 4 2 1 5 5 6 3 3
5 7 7 5 7 12 14 8 2 3 2 1 4 4 4 2 6 3 2 3 1 2 2 3 2 3 3 2 3 2 1 2 1 2 1 3 2 1 1 3 3 4 4 6
2 6 4 2 1 6 9 15 7 4 5 1 1 1 1 1 1 4 2 2 2 3 2 2 2 1 2 2 4 3 2 3 3 1 2 0 2 1 3 2 3 2 2 5
5 5 6 3 4 3 8 8 11 4 3 2 1 2 2 2 2 1 3 4 4 2 2 2 2 1 2 1 2 1 2 2 2 0 1 5 3 2 1 3 5 1 2 4
7 7 6 4 2 3 7 6 9 3 3 2 2 2 1 1 1 3 3 3 3 3 3 2 2 2 2 1 3 2 2 2 2 1 1 5 6 4 6 4 2 5 3 3
9 9 5 6 2 4 9 3 6 7 7 2 2 2 2 1 2 2 1 2 2 3 3 0 1 1 1 2 2 1 2 5 3 6 4 3 3 4 3 6 6 5 5 4
12 12 10 7 5 5 9 6 5 4 3 2 3 1 2 3 3 2 2 2 1 1 2 3 1 2 3 2 4 2 3 3 3 1 3 5 4 1 2 3 5 5 5 7
18 17 15 10 7 7 7 9 7 3 3 2 4 2 3 3 5 4 4 2 1 3 2 2 2 2 2 3 2 3 5 5 5 4 3 1 6 5 6 5 5 4 3 4
21 22 20 15 10 8 6 9 4 3 1 2 3 6 2 4 4 4 3 3 1 1 1 1 3 1 2 1 1 4 6 7 5 6 9 6 8 10 7 8 7 7 6 4
20 24 20 16 13 8 1 3 1 1 1 3 2 3 3 3 4 4 4 3 1 1 2 3 2 2 2 2 3 6 7 7 7 4 7 5 2 13 7 8 9 7 7 5
21 19 16 12 10 9 2 3 1 2 2 3 3 3 2 1 1 3 2 3 1 1 1 2 2 2 4 2 4 6 9 9 7 5 8 2 5 7 9 8 10 12 10 10
21 19 15 9 7 4 1 2 2 2 2 3 1 3 3 1 1 0 1 1 2 1 2 1 2 0 1 5 9 6 4 8 7 10 5 6 7 8 7 8 10 7 7 6
17 12 9 5 3 3 2 4 4 3 2 2 2 3 3 1 1 1 1 2 1 1 2 3 3 3 6 11 9 8 11 10 10 7 7 9 12 13 11 10 8 8 7 6
9 2 2 2 1 3 3 2 2 3 2 2 3 1 2 3 1 1 1 1 1 1 3 1 3 5 13 11 8 7 11 10 15 9 7 6 6 13 14 15 12 10 9 9
7 1 2 2 1 0 3 1 2 0 2 3 1 3 2 2 2 3 2 2 1 1 3 2 3 4 5 5 11 10 9 10 15 2 7 8 11 15 14 8 9 13 15 14
11 5 2 1 2 3 2 2 3 2 4 2 4 3 3 2 1 2 1 1 2 5 1 2 4 5 6 5 4 7 9 12 10 8 10 10 11 15 12 11 13 17 20 19
11 2 1 2 1 2 6 5 4 2 3 4 3 1 3 1 1 2 2 1 4 1 2 4 6 4 6 6 4 4 6 8 11 8 11 15 14 20 18 14 19 22 21 19
3 5 5 5 4 5 5 5 4 3 3 4 3 2 2 1 2 2 3 3 2 3 3 6 3 5 8 6 4 1 4 7 9 10 9 9 13 14 19 21 24 23 19 20
4 4 5 6 3 1 2 2 1 2 3 3 3 2 2 1 2 3 2 3 4 6 5 3 3 6 5 5 4 4 3 5 5 5 6 9 14 15 15 22 24 23 20 19
1 4 3 2 0 2 2 2 2 3 4 2 2 3 3 4 3 2 7 5 6 4 3 3 3 5 4 5 5 3 4 3 4 9 10 13 15 16 18 21 23 22 21 21
4 3 3 4 2 4 3 4 4 8 3 3 3 4 10 2 1 3 5 6 4 4 4 2 3 5 6 5 5 5 5 5 8 9 11 13 16 18 19 9 21 20 19 17
Wind_Direction
84 96 102 111 111 126 92 55 68 316 351 47 8 48 29 31 13 5 57 97 94 152 175 123 165 201 313 282 181 252 186 207 300 264 271 257 182 3 336 31 356 319 303 340
100 107 117 127 119 96 104 74 65 326 352 78 357 8 55 65 29 19 36 52 27 40 127 98 169 245 275 291 249 298 321 347 348 343 356 27 36 13 12 307 62 12 350 326
115 123 133 143 122 62 82 110 92 342 36 37 59 69 56 83 19 55 44 65 65 59 48 46 133 317 286 311 264 204 230 37 35 95 63 347 53 28 28 50 51 338 14 320
129 132 135 138 133 45 98 63 158 187 64 360 356 84 79 76 44 13 32 49 73 145 90 62 74 257 310 315 312 122 103 85 48 91 98 68 68 43 31 55 19 59 342 2
137 136 137 144 148 356 76 119 128 32 134 307 35 3 7 100 69 27 5 106 58 87 101 170 164 159 19 289 322 18 2 110 100 178 125 84 58 12 34 28 11 47 340 23
143 140 135 133 57 10 88 60 89 100 334 38 75 281 33 66 123 53 54 148 98 72 105 282 284 284 198 296 320 326 25 57 53 278 299 13 38 348 22 49 20 339 11 346
157 141 147 137 49 52 82 57 107 86 18 62 200 91 83 51 11 132 21 30 100 230 309 269 251 278 324 342 3 23 13 78 148 271 16 47 241 224 139 79 35 2 343 270
183 173 157 149 63 58 65 40 70 103 101 350 42 72 104 39 14 63 75 11 211 292 330 71 69 354 353 300 279 342 67 120 58 102 37 292 311 243 324 51 329 338 323 334
250 195 181 172 31 27 40 36 44 84 119 305 323 339 118 147 43 359 347 286 265 61 92 80 103 164 220 304 346 206 98 66 115 95 87 280 240 202 105 293 329 358 40 21
245 261 237 250 334 8 29 29 21 70 103 267 105 176 192 137 100 112 315 330 9 41 52 81 123 247 224 247 285 268 351 351 108 65 178 285 226 158 68 93 242 111 62 38
259 260 277 251 339 13 4 33 17 55 104 301 18 7 360 359 118 147 250 32 350 33 62 116 222 159 248 349 262 233 181 138 221 127 84 293 164 111 164 193 109 137 126 122
253 255 253 228 305 10 6 24 36 47 88 181 73 73 48 313 311 143 12 200 183 190 93 279 100 270 38 148 260 303 251 185 196 182 224 263 239 224 199 161 147 166 145 166
232 240 240 231 245 266 359 2 1 23 77 354 29 337 348 351 344 307 135 291 218 340 157 156 171 252 125 195 246 245 243 175 201 59 234 226 215 235 180 156 150 157 151 156
232 220 221 223 230 240 306 340 332 360 102 101 279 323 295 326 334 300 289 287 72 104 95 128 165 201 173 239 252 203 210 142 180 253 242 23 266 229 180 159 138 138 136 163
212 203 200 200 202 227 279 317 320 333 77 239 281 312 336 343 353 345 319 303 58 96 74 136 225 216 128 257 336 245 189 185 174 217 194 171 209 195 176 159 175 173 153 142
170 181 182 184 190 194 228 6 115 138 113 90 340 309 338 349 2 2 359 12 74 114 169 224 253 240 132 205 240 249 203 199 171 203 176 174 204 171 169 168 175 177 171 168
154 162 166 171 174 183 196 192 156 171 154 93 329 329 304 305 30 351 344 355 336 159 242 232 205 241 165 222 236 252 199 198 199 150 117 106 179 186 179 160 166 171 174 181
141 141 141 152 178 169 240 187 152 160 121 79 128 274 340 227 169 261 34 332 3 275 260 299 207 298 164 254 233 246 214 174 182 188 200 173 145 135 156 145 148 160 174 174
131 129 137 144 214 214 195 213 235 223 157 181 138 163 240 57 266 241 35 98 324 299 253 250 144 210 227 225 212 200 194 182 179 166 150 141 157 168 167 161 173 173 189 183
153 153 232 297 218 285 270 66 32 21 333 82 220 92 207 138 142 284 101 77 222 277 250 107 222 255 258 245 215 207 190 185 148 137 161 165 173 177 179 188 184 187 185 182
172 178 233 264 334 28 25 277 125 315 291 194 255 152 153 254 126 213 221 203 182 45 258 153 270 273 250 254 211 198 193 182 189 152 168 185 179 179 178 176 178 180 183 187
171 176 169 216 49 49 75 245 334 182 237 200 150 199 163 176 133 90 292 173 37 236 122 75 266 255 276 294 255 213 187 184 189 179 169 170 169 176 178 174 177 183 191 189
141 25 55 84 288 13 171 218 273 262 192 192 179 158 143 104 76 79 85 249 230 28 57 236 238 289 303 287 298 255 196 183 181 176 183 179 176 177 172 173 184 186 183 186
135 174 230 183 214 238 192 189 196 236 120 132 115 92 139 155 92 152 122 217 55 345 296 239 279 283 306 298 294 202 213 204 184 179 171 174 172 177 184 184 183 178 177 181
171 157 222 217 229 199 209 186 60 268 146 119 81 43 113 175 132 183 47 353 246 210 234 245 269 308 312 309 311 280 230 201 200 175 171 170 168 166 169 185 184 186 181 182
173 219 195 123 17 274 194 164 232 193 145 77 62 117 84 235 165 133 217 140 234 259 231 254 297 306 305 296 299 282 283 238 188 179 179 171 166 167 171 174 179 182 186 189
217 230 225 155 149 207 216 165 193 155 115 186 130 156 218 90 110 249 189 204 219 212 248 247 254 290 305 308 287 279 250 232 208 192 187 183 182 172 158 162 184 186 191 199
Height
760 761 762 764 765 766 767 771 779 781 778 784 788 790 778 774 777 774 774 776 778 787 788 791 811 794 783 776 777 779 780 784 780 772 758 757 760 766 757 758 760 768 754 748
762 764 765 767 767 767 768 779 785 784 782 794 794 779 780 780 781 779 778 781 779 775 780 794 793 807 780 777 776 776 775 788 798 772 761 760 769 766 756 753 760 768 759 759
764 765 766 767 768 768 769 781 788 790 789 793 789 783 783 784 781 780 779 781 781 777 783 787 790 804 781 776 775 770 774 780 781 784 776 775 772 770 762 763 770 767 770 765
766 767 768 770 771 771 772 780 792 790 795 792 789 784 782 785 785 781 781 784 786 789 790 788 790 796 784 774 771 770 773 787 778 780 776 776 778 776 768 772 768 775 770 765
769 770 772 773 774 773 773 782 788 790 792 791 788 792 785 785 786 786 784 788 789 788 792 790 789 787 788 784 776 775 778 781 779 782 777 776 782 778 770 767 768 769 767 768
773 773 774 775 776 774 775 778 780 784 794 792 792 793 785 786 786 787 789 787 791 795 793 790 788 789 786 781 781 782 782 786 795 784 775 775 786 782 779 775 773 772 771 773
778 778 778 779 778 777 777 779 780 787 796 795 792 786 787 788 787 789 792 792 791 793 791 789 787 784 782 780 781 783 785 787 793 795 784 793 784 775 774 777 777 774 770 769
783 783 783 784 784 782 781 781 781 788 800 800 793 790 792 790 792 793 794 794 794 793 791 795 794 797 787 781 780 780 785 789 787 792 800 789 778 777 772 776 779 778 775 773
787 787 788 788 788 787 785 785 785 786 798 802 800 797 793 799 799 799 794 792 791 791 794 794 792 803 785 784 782 781 786 790 791 792 792 783 776 775 776 769 784 776 777 778
790 790 790 791 791 790 789 789 788 787 800 802 800 800 798 797 800 803 799 793 795 791 798 800 811 796 788 790 783 782 793 794 789 792 801 788 775 774 775 786 787 776 777 779
792 792 793 794 794 793 793 792 790 790 800 802 801 801 799 798 799 801 798 798 797 802 796 799 803 798 798 793 784 778 786 794 793 797 790 791 771 775 780 779 778 778 779 781
790 792 794 796 797 796 795 794 793 792 793 801 800 801 801 801 800 799 799 798 798 799 802 806 804 795 817 801 794 786 791 786 787 790 784 775 770 769 769 773 777 780 781 782
786 790 794 796 798 799 799 797 796 795 798 800 800 800 800 800 800 800 800 799 796 796 798 803 804 798 804 801 800 784 780 783 783 780 774 774 771 769 768 768 771 775 777 780
783 788 792 796 797 799 801 800 798 798 800 803 802 798 798 798 799 799 799 797 795 796 798 802 803 806 800 798 792 793 781 780 780 779 773 773 771 770 770 771 771 773 775 776
777 780 787 793 796 799 800 799 799 799 802 803 803 799 798 797 797 797 798 798 798 799 799 801 800 800 801 802 799 794 773 769 772 767 758 760 760 764 767 771 772 773 775 776
775 780 785 791 794 796 799 801 798 796 797 802 802 802 799 797 797 798 797 797 799 800 799 799 798 795 797 802 796 756 754 751 748 748 751 753 753 757 762 767 770 772 773 774
781 785 788 793 796 797 797 798 796 795 795 799 805 802 799 798 797 798 798 798 799 800 799 798 797 794 795 797 788 741 744 745 746 746 750 755 756 757 759 761 765 768 771 773
781 789 793 795 797 798 797 795 794 794 795 797 809 804 802 798 799 799 799 800 801 799 797 798 796 795 795 785 747 741 738 742 744 745 741 742 747 754 758 760 764 768 771 773
789 792 794 793 795 794 794 793 794 794 797 804 805 809 805 797 799 799 798 799 805 799 797 796 793 787 776 733 731 733 734 731 733 742 743 746 747 752 756 760 763 765 768 770
791 794 795 794 790 792 794 794 794 794 794 796 797 796 800 795 798 800 800 799 798 810 791 792 789 764 729 720 720 720 723 727 731 741 747 748 749 749 752 754 758 762 766 770
791 792 795 791 789 790 793 797 799 798 796 792 791 793 798 796 799 797 796 805 804 810 791 792 784 760 723 711 710 714 718 720 722 722 726 731 733 740 747 753 756 760 763 766
787 788 790 790 790 796 798 806 801 799 790 790 791 791 794 795 794 799 801 804 811 801 791 800 781 733 715 713 711 712 713 716 719 721 724 728 733 738 743 747 752 756 759 765
787 790 790 791 795 802 805 804 807 804 789 789 790 793 789 793 794 800 804 807 802 793 810 784 750 722 718 717 714 713 713 714 716 719 722 725 729 734 738 744 748 752 757 760
786 792 793 791 800 789 783 783 782 779 782 785 788 794 792 791 796 800 807 792 798 812 805 761 736 732 724 718 717 716 716 717 716 718 721 724 727 731 735 739 744 748 753 757
779 783 782 783 772 778 780 781 780 778 777 780 786 790 788 795 795 792 802 806 803 787 764 746 734 728 730 724 721 721 720 720 721 721 722 723 726 729 733 737 741 746 750 754
772 770 765 767 772 776 774 777 780 774 776 779 782 790 796 789 788 799 793 799 790 758 752 737 732 728 727 725 721 721 722 721 721 722 723 724 726 728 731 737 740 744 747 750
762 760 757 759 768 769 770 766 766 768 775 781 784 792 772 785 795 791 777 772 743 737 732 731 729 727 725 723 722 721 720 721 722 723 724 726 728 731 733 737 739 742 745 748